Regional Weather Roundup
Issued by NWS

Home | Current Version | Previous Version | Text Only | Print | Product List | Glossary Off
Versions: 1 2 3 4 5 6 7 8 9 10 11 12 13 14 15 16 17 18 19 20 21 22 23 24 25 26 27 28 29 30 31 32 33 34 35 36 37 38 39 40 41 42 43 44 45 46 47 48 49 50

000
ASUS43 KFSD 030410
RWRSD

WEATHER ROUNDUP FOR SOUTH DAKOTA
NATIONAL WEATHER SERVICE SIOUX FALLS SD
1000 PM CST MON MAR 02 2015

NOTE: "FAIR" INDICATES FEW OR NO CLOUDS BELOW 12,000 FEET WITH NO
SIGNIFICANT WEATHER AND/OR OBSTRUCTIONS TO VISIBILITY.


SDZ001>005-009-010-012>017-030500-
NORTHWEST AND NORTH CENTRAL SOUTH DAKOTA

CITY           SKY/WX    TMP DP  RH WIND       PRES   REMARKS
BUFFALO          N/A     32  20  61 N24G32    29.65S WCI  19
FAITH            N/A     34  11  38 NE7       29.69R WCI  28
MOBRIDGE       FAIR      35  19  52 S12       29.68F WCI  27
$$

SDZ012>016-024>037-041>051-057-063-072>074-030500-
SOUTHWEST AND SOUTH CENTRAL SOUTH DAKOTA

CITY           SKY/WX    TMP DP  RH WIND       PRES   REMARKS
RAPID CTY ARPT CLOUDY    37  20  50 N14       29.68R
PIERRE         CLOUDY    37  17  44 SE10      29.72F
CUSTER         LGT SNOW  25  21  85 NE9       29.63R VSB 3/4 WCI  15
ELLSWORTH AFB  CLOUDY    38  21  49 N13       29.67S
PHILIP         CLOUDY    39  22  50 S13       29.68S
PINE RIDGE     MOCLDY    31  22  69 SW8       29.66S WCI  23
SPEARFISH      CLOUDY    32  18  55 W7        29.72R WCI  26
WINNER         FAIR      35  16  45 S14       29.76S WCI  26
$$

SDZ004>011-016>023-039-040-030500-
NORTHEAST SOUTH DAKOTA

CITY           SKY/WX    TMP DP  RH WIND       PRES   REMARKS
ABERDEEN       FAIR      29  20  69 S22G30    29.80F WCI  15
WATERTOWN      CLOUDY    27  21  78 S22G31    29.84F WCI  13
SISSETON         N/A     27  20  75 S20       29.86F WCI  13
$$

SDZ017-020-022-023-036>040-048>070-030500-
SOUTHEAST SOUTH DAKOTA

CITY           SKY/WX    TMP DP  RH WIND       PRES   REMARKS
SIOUX FALLS    CLOUDY    28  20  71 SE10G24   29.92F WCI  19
HURON          CLOUDY    31  21  66 SE13G25   29.82F WCI  21
CHAMBERLAIN    MOCLDY    35  17  49 S14G21    29.78F WCI  25
MITCHELL       FAIR      32  21  64 SE18      29.87F WCI  20
YANKTON        FAIR      34  18  51 SE13      29.91F WCI  25
$$

ABBREVIATIONS USED IN REMARKS
   TC - TEMPERATURE IN CELSIUS
  WCI - WIND CHILL INDEX
   HX - HEAT INDEX
  VSB - VISIBILITY



USA.gov is the U.S. government's official web portal to all federal, state and local government web resources and services.